Regional Weather Roundup
Issued by NWS Cleveland, OH

Home | Current Version | Previous Version | Graphics & Text | Print | Product List | Glossary On
Versions: 1 2 3 4 5 6 7 8 9 10 11 12 13 14 15 16 17 18 19 20 21 22 23 24 25 26 27 28 29 30 31 32 33 34 35 36 37 38 39 40 41 42 43 44 45 46 47 48 49 50
000
ASUS41 KCLE 171012
RWRCLE
OHIO REGIONAL WEATHER ROUNDUP
NATIONAL WEATHER SERVICE WILMINGTON, OH
600 AM EDT TUE OCT 17 2017

NOTE: "FAIR" INDICATES FEW OR NO CLOUDS BELOW 12,000 FEET WITH NO
SIGNIFICANT WEATHER AND/OR OBSTRUCTIONS TO VISIBILITY.

OHZ001>008-015>018-024>027-034-035-043-044-171100-
   NORTHWEST OHIO

CITY           SKY/WX    TMP DP  RH WIND       PRES   REMARKS
DEFIANCE       FAIR      42  36  79 SW5       30.29R
FINDLAY        FAIR      41  35  79 S8        30.29R
TOLEDO EXPRESS FAIR      43  40  89 SW6       30.27R
TOLEDO EXEC    FAIR      45  38  76 SW8       30.29R
LIMA           FAIR      42  37  82 S7        30.31R
$$

OHZ009>014-019>023-028>033-038-089-171100-
   NORTHEAST OHIO

CITY           SKY/WX    TMP DP  RH WIND       PRES   REMARKS
CLE-HOPKINS    FAIR      45  35  68 S12       30.32R
CLE-LAKEFRONT  FAIR      45  34  65 S12       30.29R
CUY CO. ARPT   NOT AVBL
LORAIN-ELYRIA    N/A    N/A N/A N/A MISG      30.31R
ASHTABULA      FAIR      37  34  89 S6        30.31R
AKRON-CANTON   FAIR      40  33  76 S6        30.32R
WOOSTER        FAIR      34  32  92 CALM      30.33R
MANSFIELD      FAIR      40  37  89 S8        30.31R
YOUNGSTOWN     FAIR      36  31  82 S3        30.31R
$$

OHZ042-051>053-060>062-070>072-077>081-171100-
  SOUTHWEST OHIO

CITY           SKY/WX    TMP DP  RH WIND       PRES   REMARKS
CINC-COVINGTON FAIR      39  39 100 CALM      30.34R
CINC-LUNKEN    CLOUDY    39  39 100 CALM      30.37R FOG
HAMILTON       FAIR      35  34  96 CALM      30.36R
DAYTON         FAIR      42  39  89 SW6       30.34R
WRIGHT-PAT AFB CLEAR     39  39  99 CALM      30.34R
DAYTON GENERAL FAIR      42  37  82 CALM      30.33R
WILMINGTON     FAIR      41  38  89 CALM      30.34R
$$

OHZ036-037-039>041-045>050-054>059-063>069-073>076-082>088-171100-
  CENTRAL AND SOUTHEAST OHIO

CITY           SKY/WX    TMP DP  RH WIND       PRES   REMARKS
COLUMBUS       FAIR      42  40  92 SE3       30.34R
OSU AIRPORT    FAIR      39  39 100 CALM      30.33R
BOLTON FIELD   FAIR      36  36  99 CALM      30.34R
RICKENBACK AFB FAIR      39  39 100 CALM      30.34R
NEWARK         FAIR      36  33  89 CALM      30.34R
MARION         FAIR      39  36  89 S5        30.32R
LANCASTER      FAIR      35  34  96 CALM      30.35R
ZANESVILLE     FAIR      36  34  92 CALM      30.34R
NEW PHILLY     CLOUDY    38  37  97 E3        30.35R FOG
$$




USA.gov is the U.S. government's official web portal to all federal, state and local government web resources and services.